Location: Newark
(13.8117°N, 3.6025°W)
Time: 11:13:21
(UTC+00:00)

Explorer 11/Cluster Stage 4 - Pass Details

Date: 03 September 2019
Orbit: 467 x 1260 km, 28.8° (Epoch: 23 September)

Event Time Altitude Azimuth Distance (km) Brightness Sun altitude
Rises 05:44:41 0° 278° (W) 2,836 - -5.2°
Exits shadow 05:45:41 - 283° (WNW) 2,501 8.6 -5.0°
Reaches altitude 10° 05:47:10 10° 292° (WNW) 2,047 8.2 -4.6°
Maximum altitude 05:51:08 25° 348° (NNW) 1,460 8.0 -3.7°
Drops below altitude 10° 05:55:52 10° 42° (NE) 2,479 10.0 -2.5°
Sets 05:59:12 0° 55° (NE) 3,582 11.3 -1.7°
